Погода в Марьяновке

Россия / Омская область     54°57′33″N   72°38′19″E
темп.,
°C
ветер,
м/с
пор.,
м/с
влажн.,
%
обл.,
%
осадки,
мм/ч
давл.,
гПа
погр.,
м
9 марта, вт
вт900:00−14юз6138891 0.0 1017323
03:00−12юз7149084 0.1 1016538
06:00−12юз6139192 0.1 1016486
09:00−10юз71391100 0.1 1016509
12:00−9ююз81391100 0.1 1016589
15:00−6юз81488100 0.1 1015768
18:00−6ююз71483100 0.1 1014634
21:00−8ююз7158577 0.0 1014494
10 марта, ср
ср1000:00−9юз6128888 0.0 1014404
03:00−10юз4992100 0.0 1014218
06:00−10юз2395100 0.0 101358
09:00−9юв2396100 0.2 1012121
12:00−8в3595100 1.4 1009275
15:00−6всв4695100 2.1 1005416
18:00−7всв4695100 2.9 1002453
21:00−9сз2296100 0.3 100222
11 марта, чт
чт1100:00−11зюз349694 0.4 100353
03:00−11юз479788 0.1 1004126
06:00−8юз7139291 0.3 1004608
09:00−12юз71490100 0.0 1006519
12:00−11юз7128692 0.0 1007624
15:00−8ююз6108361 0.0 1007829
18:00−8зюз489481 0.3 1005555
21:00−13юз6139047 0.1 1006416
12 марта, пт
пт1200:00−17юз5139266 0.1 1007420
03:00−16юз6139394 0.1 1008540
06:00−18зюз7139397 0.1 1010438
09:00−21зюз61293100 0.0 1014446
12:00−20зюз6108980 0.0 1016496
15:00−18зюз588973 0.0 1017555
18:00−18зюз599286 0.0 1018610
21:00−22зюз499694 0.0 1020179
13 марта, сб
сб1300:00−22з499794 0.0 1022241
03:00−25зюз499587 0.0 1024137
06:00−27юз479743 0.0 1025115
09:00−24юз5109830 0.0 1025224
12:00−18юз699564 0.0 1026293
15:00−14юз71192100 0.0 1027407
18:00−14зюз61192100 0.0 1027415
21:00−15зюз51095100 0.0 1028252